User: anonymous   Login
Location: Pine Mountain Observatory
(43.7910°N, 120.9377°W)
Time: 22:52:28
(UTC-08:00)
Language:

Cosmos 1867 - Orbit

View from above orbital plane
View from above orbital plane
View from above satellite
View from above satellite

Ground track
Ground track

The orbit data is extracted from the following two-line orbital elements,

1 18187U 87060A   17016.72732226 -.00000089  00000-0  43848-5 0  9992
2 18187  65.0114 292.6788 0017536 257.9399 101.9720 14.31081419542320
Epoch (UTC): 16 January 2017 17:27:20
Eccentricity: 0.0017536
inclination: 65.0114°
perigee height: 775 km
apogee height: 800 km
right ascension of ascending node: 292.6788°
argument of perigee: 257.9399°
revolutions per day: 14.31081419
mean anomaly at epoch: 101.9720°
orbit number at epoch: 54232

The dashed part of the orbit path shows where the satellite is in the earth's shadow,  

DLR